Location: Albany
(35.0000°S, 118.0000°E)
Time: 22:54:18
(UTC-05:00)

SJ-6B - Visible Passes

Search period start: 23 February 2017 00:00
Search period end: 05 March 2017 00:00
Orbit: 511 x 585 km, 97.8° (Epoch: 22 February)

Date Brightness Start Highest point End Pass type
(mag) Time Alt. Az. Time Alt. Az. Time Alt. Az.
23 Feb 3.3 06:19:04 10° SSE 06:23:06 43° E 06:27:04 10° N visible
23 Feb 6.2 07:55:18 10° SW 07:57:20 13° WSW 07:59:22 10° W visible
24 Feb 3.5 06:14:18 10° SSE 06:18:15 38° E 06:22:08 10° NNE visible
24 Feb 6.1 07:50:06 10° SSW 07:52:33 15° WSW 07:54:58 10° WNW visible
25 Feb 5.9 07:45:00 10° SSW 07:47:45 17° WSW 07:50:30 10° WNW visible
26 Feb 5.8 07:39:55 10° SSW 07:42:57 19° WSW 07:45:57 10° WNW visible
27 Feb 5.5 07:34:53 10° SSW 07:38:09 22° WSW 07:41:22 10° WNW visible
28 Feb 5.3 07:29:53 10° SSW 07:33:20 25° WSW 07:36:44 10° NW visible
01 Mar 5.1 07:24:54 10° SSW 07:28:31 28° WSW 07:32:05 10° NW visible
02 Mar 4.8 07:19:57 10° S 07:23:42 32° WSW 07:27:23 10° NW visible
03 Mar 4.6 07:14:59 10° S 07:18:52 37° WSW 07:22:41 10° NW visible
04 Mar 4.3 07:10:04 10° S 07:14:02 42° WSW 07:17:56 10° NW visible
